TimeCST,TemperatureF,Dew PointF,Humidity,Sea Level PressureIn,VisibilityMPH,Wind Direction,Wind SpeedMPH,Gust SpeedMPH,PrecipitationIn,Events,Conditions,WindDirDegrees,DateUTC
12:53 AM,36.0,33.1,89,30.30,10.0,Calm,Calm,-,N/A,,Clear,0,2012-12-05 06:53:00
1:53 AM,34.0,30.0,85,30.32,9.0,Calm,Calm,-,N/A,,Clear,0,2012-12-05 07:53:00
2:53 AM,34.0,30.0,85,30.32,10.0,Calm,Calm,-,N/A,,Clear,0,2012-12-05 08:53:00
3:53 AM,32.0,28.9,88,30.32,10.0,Calm,Calm,-,N/A,,Clear,0,2012-12-05 09:53:00
4:53 AM,30.9,28.0,89,30.32,10.0,Calm,Calm,-,N/A,,Clear,0,2012-12-05 10:53:00
5:53 AM,33.1,28.9,85,30.34,10.0,Calm,Calm,-,N/A,,Clear,0,2012-12-05 11:53:00
6:53 AM,32.0,28.9,88,30.35,10.0,Calm,Calm,-,N/A,,Clear,0,2012-12-05 12:53:00
8:53 AM,34.0,32.0,92,30.35,10.0,Calm,Calm,-,N/A,,Clear,0,2012-12-05 14:53:00
9:53 AM,42.1,36.0,79,30.34,10.0,SE,4.6,-,N/A,,Clear,140,2012-12-05 15:53:00
10:53 AM,48.0,37.0,66,30.32,10.0,ESE,4.6,-,N/A,,Clear,110,2012-12-05 16:53:00
11:53 AM,52.0,35.1,53,30.30,10.0,Calm,Calm,-,N/A,,Clear,0,2012-12-05 17:53:00
12:53 PM,55.0,37.0,51,30.27,10.0,ESE,4.6,-,N/A,,Clear,110,2012-12-05 18:53:00
1:53 PM,55.9,36.0,47,30.22,10.0,East,3.5,-,N/A,,Clear,90,2012-12-05 19:53:00
2:53 PM,57.9,34.0,41,30.21,10.0,East,3.5,-,N/A,,Clear,100,2012-12-05 20:53:00
3:53 PM,57.0,37.0,47,30.19,10.0,Calm,Calm,-,N/A,,Clear,0,2012-12-05 21:53:00
4:53 PM,52.0,37.9,59,30.17,10.0,East,3.5,-,N/A,,Clear,90,2012-12-05 22:53:00
5:53 PM,51.1,37.0,59,30.18,10.0,ESE,4.6,-,N/A,,Clear,110,2012-12-05 23:53:00
6:53 PM,45.0,36.0,71,30.16,10.0,ESE,6.9,-,N/A,,Clear,120,2012-12-06 00:53:00
7:53 PM,43.0,35.1,74,30.15,10.0,SE,4.6,-,N/A,,Clear,140,2012-12-06 01:53:00
8:53 PM,42.1,34.0,73,30.14,10.0,SE,5.8,-,N/A,,Clear,130,2012-12-06 02:53:00
9:53 PM,45.0,34.0,65,30.12,10.0,ESE,6.9,-,N/A,,Clear,110,2012-12-06 03:53:00
10:53 PM,43.0,34.0,71,30.10,10.0,ESE,6.9,-,N/A,,Clear,120,2012-12-06 04:53:00
11:53 PM,42.1,33.1,70,30.10,10.0,ESE,5.8,-,N/A,,Clear,110,2012-12-06 05:53:00